Retour au catalogue

NPP

ActifMétéoSSO
NORAD 37849·PAYLOAD·🇺🇸 United States

Lancé Oct 28, 2011 depuis Vandenberg Space Force Base

Loading…

Prochains Passages (prochaines 24 heures)

TLE

FraisSource: Space-Track

Époque: Sep 14, 2026, 15:30 UTC

1 37849U 11061A   26257.64589819  .00000060  00000-0  49468-4 0  9993
2 37849  98.8002 197.9275 0002821  74.9553 285.1935 14.19533123771130

Suivez NPP en temps réel avec AllMySat

Download on the App Store